Wind_Speed
15 12 12 14 12 10 10 11 11 10 6 6 12 14 14 9 13 16 12 11 21 21 25 26 22 20 17 18 22 18 20 20 17 16 15 18 22 25 25 21 16 18 14 14
12 15 13 10 16 8 11 12 13 12 5 9 16 18 15 12 6 7 15 15 13 24 25 26 25 25 21 24 23 21 17 20 14 12 10 14 17 24 22 23 20 17 11 14
15 14 5 7 12 14 10 13 12 14 10 14 19 13 11 7 10 6 8 11 14 16 26 30 28 27 26 23 21 21 23 20 20 18 16 13 14 15 19 24 22 18 16 12
12 13 12 12 11 10 14 13 11 11 12 12 14 13 15 14 4 12 12 4 15 15 18 34 29 27 26 28 25 23 23 23 20 21 15 17 17 21 22 20 21 14 17 15
14 9 9 11 13 11 13 13 11 9 13 17 19 10 13 12 9 5 5 7 4 8 18 25 31 30 28 26 28 24 23 23 20 18 19 16 17 17 18 18 22 18 18 18
12 15 7 9 12 8 7 12 13 15 14 13 11 12 1 6 5 5 3 11 2 2 13 14 29 32 29 27 29 26 25 22 23 21 18 18 13 14 18 20 24 22 22 21
17 20 17 13 11 12 10 12 10 12 9 9 3 12 6 8 10 2 2 10 9 4 11 13 22 32 29 29 27 28 25 22 20 18 15 13 13 10 15 20 24 21 22 22
11 10 17 15 9 12 11 13 9 14 14 8 14 7 5 2 9 3 3 9 8 4 11 13 17 19 26 25 30 25 26 22 21 20 15 13 13 12 15 23 24 23 21 21
10 9 10 5 8 5 12 14 12 13 15 13 10 13 18 20 8 4 13 14 8 4 10 11 15 17 24 22 27 25 26 23 20 20 17 15 13 14 17 20 24 25 23 20
11 14 12 15 11 10 14 14 13 9 10 13 11 10 9 8 4 7 14 10 12 1 2 12 14 17 19 20 21 22 26 25 19 19 17 15 14 14 18 22 27 22 15 18
12 13 16 16 14 11 13 14 15 11 10 10 12 3 9 15 5 6 16 14 15 14 10 5 9 17 17 18 21 22 24 20 21 21 19 17 14 14 20 27 29 20 16 22
12 14 12 17 22 21 18 19 12 12 12 11 9 11 10 9 19 19 21 18 15 16 18 10 7 15 18 18 20 25 26 24 24 23 24 20 19 17 17 23 31 21 14 20
10 8 9 12 14 19 17 12 14 14 15 16 15 12 12 3 15 20 22 13 14 14 16 17 11 9 17 20 20 24 29 30 24 24 24 20 20 21 19 20 27 25 21 16
5 12 15 13 18 21 17 18 13 13 15 9 16 17 10 14 13 20 15 12 10 11 15 16 15 15 9 15 21 22 27 31 24 24 26 23 22 23 23 19 18 22 24 24
4 13 16 17 18 20 21 19 18 18 19 19 21 23 18 3 16 11 9 11 5 9 11 13 14 16 11 10 14 23 23 24 23 27 27 26 25 23 24 23 23 22 24 24
9 12 14 17 18 18 20 21 21 21 21 22 21 21 18 23 17 16 15 7 5 8 10 12 13 14 14 9 17 16 23 24 27 27 27 27 26 25 23 24 25 26 24 21
13 12 13 17 18 20 17 18 17 20 14 14 16 10 13 12 15 15 11 9 4 5 8 11 12 14 13 12 11 19 22 26 24 32 32 32 31 30 27 29 29 26 26 22
14 13 11 14 15 20 17 16 15 9 10 14 12 15 15 16 16 17 12 8 5 7 10 12 13 15 14 14 16 11 24 26 29 28 29 31 32 31 30 28 30 29 26 26
12 10 11 12 14 19 21 16 11 11 4 13 9 12 13 14 16 10 15 15 13 11 12 13 15 17 19 17 19 19 20 28 28 29 32 32 32 32 32 30 30 30 28 27
4 8 9 12 16 19 19 9 5 10 8 11 9 9 12 15 7 5 15 16 15 15 14 16 18 18 18 18 16 12 12 25 27 31 33 34 34 35 35 33 30 30 31 28
8 7 11 11 14 14 16 17 9 8 5 8 7 8 11 10 14 24 23 20 17 19 18 17 19 19 19 20 19 14 11 22 24 27 32 33 36 37 35 33 30 30 30 29
13 11 12 12 14 11 11 17 12 13 17 18 15 14 16 19 20 21 23 25 21 21 21 19 19 21 20 19 17 21 12 17 25 27 32 35 36 39 37 36 33 31 28 28
7 8 7 7 10 18 18 15 20 23 19 20 21 22 23 23 23 26 26 27 27 24 25 23 20 21 21 19 19 23 18 16 24 27 32 36 37 40 38 38 37 33 30 27
8 3 6 12 14 18 24 21 21 22 22 20 21 23 25 28 26 26 28 24 26 25 26 23 22 20 22 20 19 18 24 22 20 27 29 31 34 36 37 33 36 38 35 34
7 13 12 13 15 23 18 20 23 28 30 26 28 28 27 28 29 28 30 31 29 25 28 26 26 19 23 22 19 20 21 25 24 26 29 33 35 35 34 37 34 34 37 38
10 7 5 7 19 20 28 32 33 34 34 32 29 28 25 28 25 25 29 32 35 31 30 26 26 19 22 23 21 24 25 20 22 26 31 36 36 36 36 34 32 30 28 25
Wind_Direction
235 243 245 264 282 356 343 305 295 303 321 305 309 286 282 278 264 200 201 242 201 200 199 186 183 184 191 182 176 174 182 203 195 216 216 213 217 208 213 214 207 216 227 206
245 249 252 266 293 315 300 294 287 281 288 328 294 286 271 264 200 267 201 203 235 197 183 180 180 185 186 189 188 187 186 183 200 218 234 226 225 224 230 215 217 235 209 216
261 264 305 295 297 299 271 256 282 285 333 285 282 305 294 246 141 217 249 231 222 212 185 179 181 185 183 184 187 194 191 205 204 210 231 221 219 227 227 217 228 238 215 217
259 273 268 287 263 267 281 289 321 327 300 297 311 287 278 129 217 197 237 220 211 194 188 177 183 186 188 190 190 196 199 208 217 202 214 225 238 241 233 222 221 250 197 194
274 235 243 253 262 285 276 295 287 278 282 283 279 268 148 156 154 24 24 89 298 188 185 185 181 188 192 190 190 195 200 207 207 210 210 224 243 246 236 218 210 216 197 193
259 282 245 272 307 284 306 297 288 273 262 268 287 275 32 120 146 78 136 88 359 102 167 184 180 181 187 195 195 191 200 211 214 217 215 227 242 243 216 205 198 197 195 191
240 232 231 224 253 251 237 252 269 271 210 268 268 301 25 86 95 84 53 141 133 147 158 174 177 175 186 189 193 190 200 210 219 222 224 230 239 232 206 202 191 189 188 194
286 309 196 189 211 284 292 273 259 294 306 320 180 230 176 85 86 107 96 100 101 155 148 174 185 183 177 184 185 190 201 209 214 216 222 224 233 206 196 197 190 191 207 198
320 339 140 160 251 256 287 278 279 280 280 277 281 52 12 9 132 67 75 39 127 163 160 175 180 187 182 187 189 189 202 208 220 207 221 218 223 198 188 202 197 188 207 201
302 300 307 304 174 224 257 285 304 297 286 284 295 305 144 226 58 46 77 38 13 63 221 167 183 185 191 186 191 189 207 215 219 198 220 213 210 203 184 192 189 191 205 201
305 298 293 296 282 250 272 221 250 278 289 288 291 60 207 194 226 136 86 54 25 12 357 190 186 177 185 185 197 196 204 210 200 194 208 200 206 201 195 194 188 186 196 201
306 317 295 300 310 307 300 293 255 242 253 269 295 294 106 103 14 63 76 49 29 7 6 338 189 178 179 191 200 202 202 200 200 198 206 200 196 200 208 198 191 187 188 201
356 289 303 301 296 253 338 265 291 286 271 264 279 280 91 87 77 42 16 41 18 9 16 3 349 186 183 189 199 202 206 208 214 201 211 205 198 200 208 205 197 195 200 197
312 281 280 279 294 309 304 304 284 284 292 277 279 296 24 95 52 26 352 357 11 17 11 9 355 356 194 198 202 204 208 215 215 201 208 204 208 200 200 214 203 202 207 212
240 265 273 282 294 296 297 297 296 290 287 286 295 299 307 87 139 163 170 280 29 24 9 8 356 344 354 212 204 206 207 212 207 202 206 209 213 212 200 207 207 208 216 218
245 266 274 275 276 275 278 277 275 273 271 273 276 279 292 301 149 136 181 97 25 23 4 355 352 344 335 316 221 217 218 217 212 206 205 210 214 214 210 202 213 211 219 225
283 285 296 288 303 302 287 280 272 278 296 309 281 306 23 12 31 29 26 88 48 19 355 347 343 333 336 306 278 224 219 221 220 218 215 212 217 213 214 207 215 215 217 219
272 270 274 277 283 272 278 291 283 293 306 311 329 17 24 11 5 2 15 68 12 1 352 343 336 330 320 312 284 292 219 217 216 218 215 218 219 218 216 213 213 217 215 221
243 263 272 276 272 280 280 281 11 1 316 33 9 1 353 354 349 40 29 9 352 342 332 326 322 324 323 316 315 275 229 215 211 216 221 216 214 219 217 216 216 220 218 218
248 278 269 273 284 284 300 62 317 329 264 38 21 8 358 349 310 90 350 337 331 323 319 321 318 315 320 318 306 302 232 210 216 219 218 216 216 221 221 220 217 218 219 217
274 253 255 261 266 263 23 6 337 248 9 359 342 337 323 310 304 306 310 309 310 312 312 310 311 311 314 318 318 301 269 235 227 226 219 219 221 222 221 218 223 217 216 216
285 278 285 297 294 287 23 351 335 347 334 329 317 303 302 297 294 292 295 299 298 298 300 299 299 303 308 312 314 297 259 266 237 227 222 223 221 221 220 218 219 215 212 206
271 279 311 303 301 321 330 343 329 324 324 325 320 307 299 295 291 287 288 289 288 285 287 286 287 296 297 307 303 305 291 263 248 236 226 220 220 222 219 217 215 212 210 211
310 61 276 306 295 316 314 320 318 328 312 308 299 295 298 298 299 300 303 296 288 290 284 282 285 285 291 299 299 300 299 263 254 242 234 230 224 220 217 215 215 214 213 208
351 329 346 296 297 334 306 315 313 311 308 307 293 292 289 288 286 287 290 298 299 283 281 275 281 273 287 289 295 287 283 282 251 238 234 231 225 222 218 214 214 223 218 216
358 6 326 309 318 304 296 301 298 297 293 287 288 288 291 281 290 278 283 283 287 286 273 274 277 269 282 283 282 283 291 292 246 243 231 228 223 218 212 210 210 211 206 216
Height
1493 1494 1492 1479 1471 1471 1479 1484 1484 1474 1468 1475 1475 1471 1461 1461 1462 1464 1469 1473 1473 1479 1484 1488 1496 1503 1509 1512 1514 1517 1522 1526 1527 1529 1532 1533 1534 1537 1537 1541 1548 1549 1552 1552
1491 1491 1478 1477 1474 1476 1482 1486 1484 1472 1465 1471 1471 1465 1454 1452 1455 1459 1461 1465 1469 1473 1478 1487 1492 1497 1505 1509 1512 1516 1520 1524 1526 1528 1531 1532 1533 1534 1536 1542 1545 1533 1548 1551
1486 1477 1472 1478 1479 1481 1479 1482 1481 1479 1469 1468 1463 1463 1451 1445 1454 1457 1458 1458 1461 1465 1473 1480 1488 1494 1499 1505 1511 1514 1518 1521 1524 1529 1529 1531 1532 1532 1533 1535 1540 1543 1546 1548
1479 1473 1475 1477 1481 1480 1487 1468 1468 1475 1480 1491 1463 1488 1454 1450 1452 1451 1452 1452 1454 1459 1467 1474 1482 1491 1496 1500 1507 1510 1515 1519 1522 1526 1528 1530 1529 1529 1531 1533 1534 1534 1541 1546
1483 1474 1479 1482 1479 1473 1480 1468 1470 1474 1479 1477 1467 1469 1455 1446 1453 1452 1450 1454 1455 1456 1461 1469 1477 1484 1492 1497 1501 1506 1510 1515 1519 1521 1525 1526 1526 1528 1529 1532 1534 1535 1541 1545
1477 1473 1474 1476 1472 1471 1472 1475 1473 1470 1474 1492 1464 1462 1455 1454 1450 1449 1448 1454 1456 1456 1460 1467 1472 1481 1489 1495 1499 1502 1506 1511 1515 1517 1521 1522 1523 1525 1526 1529 1532 1536 1538 1542
1471 1467 1466 1470 1477 1470 1472 1479 1496 1492 1489 1493 1478 1466 1454 1441 1442 1446 1448 1449 1454 1458 1461 1466 1471 1477 1483 1489 1495 1499 1503 1507 1513 1515 1518 1520 1521 1523 1526 1528 1531 1534 1537 1539
1477 1479 1460 1459 1470 1475 1469 1469 1485 1505 1492 1475 1454 1471 1453 1438 1442 1447 1447 1450 1454 1458 1460 1466 1471 1476 1481 1486 1492 1495 1499 1503 1509 1512 1515 1517 1519 1520 1517 1528 1529 1532 1536 1538
1478 1472 1455 1462 1465 1468 1471 1474 1455 1469 1460 1470 1455 1450 1450 1448 1446 1449 1449 1452 1455 1457 1459 1465 1470 1475 1480 1485 1489 1493 1496 1500 1505 1510 1512 1515 1516 1519 1518 1524 1527 1530 1536 1540
1474 1487 1462 1458 1460 1465 1468 1461 1477 1465 1494 1497 1467 1469 1484 1468 1459 1453 1455 1460 1460 1459 1460 1462 1468 1473 1478 1483 1488 1492 1494 1498 1503 1507 1509 1512 1514 1516 1519 1517 1523 1529 1535 1539
1475 1478 1476 1463 1464 1465 1462 1468 1466 1464 1468 1486 1485 1474 1448 1457 1455 1455 1458 1466 1466 1464 1462 1463 1466 1470 1476 1481 1487 1491 1492 1496 1501 1504 1507 1509 1511 1514 1516 1517 1522 1529 1534 1536
1475 1479 1486 1474 1458 1455 1455 1457 1458 1475 1483 1467 1474 1475 1448 1455 1462 1457 1464 1469 1473 1472 1467 1464 1465 1468 1473 1479 1484 1488 1491 1493 1498 1502 1504 1507 1509 1512 1512 1516 1523 1529 1532 1532
1485 1483 1491 1483 1466 1450 1463 1453 1454 1454 1457 1472 1480 1469 1450 1457 1460 1470 1475 1474 1477 1476 1473 1469 1466 1466 1470 1475 1481 1485 1487 1489 1493 1498 1501 1504 1506 1509 1510 1514 1519 1526 1529 1530
1491 1489 1494 1501 1486 1470 1476 1466 1462 1466 1473 1473 1472 1456 1453 1472 1478 1480 1479 1477 1478 1478 1476 1475 1472 1471 1471 1473 1476 1482 1484 1487 1490 1495 1498 1501 1504 1506 1508 1511 1515 1521 1524 1528
1490 1498 1490 1483 1478 1474 1471 1470 1468 1470 1468 1477 1466 1461 1455 1462 1472 1476 1468 1479 1478 1479 1479 1477 1477 1474 1472 1473 1475 1479 1484 1485 1487 1491 1495 1497 1500 1504 1506 1508 1512 1515 1518 1523
1482 1493 1488 1489 1479 1476 1476 1469 1466 1465 1463 1462 1461 1462 1454 1456 1463 1472 1479 1475 1479 1481 1481 1480 1477 1476 1473 1473 1474 1477 1480 1485 1486 1487 1493 1495 1497 1500 1503 1505 1507 1510 1512 1515
1485 1486 1492 1496 1482 1479 1485 1471 1463 1459 1457 1460 1466 1458 1458 1461 1467 1471 1474 1478 1483 1483 1483 1481 1478 1477 1475 1473 1473 1472 1475 1480 1482 1483 1487 1491 1494 1496 1498 1501 1503 1505 1508 1511
1483 1486 1488 1494 1489 1504 1472 1459 1455 1460 1461 1462 1460 1462 1466 1470 1471 1474 1476 1479 1482 1481 1480 1479 1477 1476 1474 1472 1470 1472 1468 1471 1477 1479 1482 1485 1488 1492 1495 1498 1500 1502 1506 1508
1476 1481 1488 1495 1491 1478 1470 1460 1465 1469 1467 1467 1469 1471 1473 1475 1476 1476 1478 1479 1478 1478 1479 1478 1476 1475 1472 1469 1467 1465 1466 1465 1469 1474 1476 1479 1483 1487 1490 1493 1498 1500 1502 1505
1477 1480 1487 1488 1496 1498 1472 1469 1472 1471 1481 1477 1478 1479 1481 1482 1482 1481 1482 1481 1480 1479 1477 1476 1475 1472 1470 1467 1464 1462 1463 1463 1463 1467 1471 1474 1478 1480 1482 1483 1486 1492 1497 1499
1479 1480 1486 1482 1485 1476 1478 1475 1474 1489 1492 1484 1484 1484 1486 1486 1486 1482 1481 1480 1479 1478 1476 1474 1473 1470 1468 1464 1461 1458 1459 1459 1458 1462 1465 1469 1471 1472 1475 1479 1483 1486 1491 1495
1488 1489 1485 1479 1485 1495 1489 1487 1495 1487 1485 1485 1485 1485 1484 1484 1483 1482 1480 1478 1477 1475 1473 1471 1469 1467 1464 1463 1460 1457 1452 1456 1455 1455 1459 1461 1463 1466 1469 1473 1477 1481 1486 1489
1488 1479 1485 1486 1483 1480 1486 1488 1489 1487 1487 1487 1487 1484 1481 1478 1478 1477 1476 1474 1472 1471 1469 1467 1465 1462 1460 1459 1454 1451 1448 1450 1453 1452 1451 1453 1456 1459 1463 1466 1470 1474 1479 1483
1479 1482 1487 1488 1482 1482 1484 1487 1488 1487 1486 1484 1483 1481 1479 1476 1473 1472 1470 1468 1466 1465 1463 1461 1459 1457 1455 1454 1451 1450 1447 1446 1446 1448 1450 1452 1453 1455 1458 1461 1464 1467 1471 1475
1487 1486 1488 1487 1485 1488 1486 1487 1487 1486 1484 1480 1479 1476 1474 1473 1470 1469 1467 1464 1461 1459 1457 1456 1454 1451 1450 1449 1447 1444 1442 1440 1439 1440 1442 1444 1446 1449 1452 1457 1459 1461 1464 1468
1494 1497 1498 1493 1495 1495 1488 1486 1484 1481 1477 1475 1472 1469 1468 1468 1464 1463 1461 1458 1454 1452 1450 1448 1447 1444 1444 1443 1441 1436 1435 1432 1432 1435 1433 1434 1438 1443 1447 1452 1451 1456 1462 1465